Regional Weather Roundup
Issued by NWS

Home | Current Version | Previous Version | Text Only | Print | Product List | Glossary On
Versions: 1 2 3 4 5 6 7 8 9 10 11 12 13 14 15 16 17 18 19 20 21 22 23 24 25 26 27 28 29 30 31 32 33 34 35 36 37 38 39 40 41 42 43 44 45 46 47 48 49 50
000
ASUS43 KDMX 251407
RWRIA

WEATHER ROUNDUP FOR IOWA
NATIONAL WEATHER SERVICE DES MOINES IA
800 AM CST TUE NOV 25 2014

NOTE: "FAIR" INDICATES FEW OR NO CLOUDS BELOW 12,000 FEET WITH NO
SIGNIFICANT WEATHER AND/OR OBSTRUCTIONS TO VISIBILITY.

* - THESE STATIONS ARE NOT NWS STATIONS...THUS NOT UNDER NWS
QUALITY CONTROL.  THEY ALSO DO NOT REPORT WEATHER SUCH
AS PRECIPITATION OR FOG.

IAZ001>003-012>014-020>022-031>034-043>046-251500-
   NORTHWEST IOWA

CITY           SKY/WX    TMP DP  RH WIND       PRES   REMARKS
CARROLL *      CLEAR     14   7  73 CALM      30.10S
CHEROKEE *     CLEAR     12   9  85 CALM      30.08F
DENISON *      CLEAR     16   7  67 SW6       30.09S WCI   7
LE MARS *      CLEAR     10   7  85 S3        30.08S
ORANGE CITY *  CLEAR     10   5  79 CALM      30.04F
SHELDON *      CLEAR     12   7  79 SW6       30.04S WCI   3
SIOUX CITY     CLOUDY    18  10  71 CALM      30.10S
SPENCER        PTCLDY    11   6  81 SW3       30.06R
STORM LAKE *   CLEAR     12   5  73 W8        30.08R WCI   1
$$

IAZ055>058-069>071-079>083-090>094-251500-
   SOUTHWEST IOWA

CITY           SKY/WX    TMP DP  RH WIND       PRES   REMARKS
ATLANTIC *     CLEAR     16  10  79 S6        30.13R WCI   7
AUDUBON *      CLEAR     16   7  67 CALM      30.10S
CLARINDA *     CLEAR     16  12  86 S3        30.18R
COUNCIL BLFS * CLEAR     19   9  63 S3        30.12S
CRESTON *      CLEAR     16  10  79 W6        30.13R WCI   7
HARLAN  *      CLEAR     14   9  79 SW3       30.16R
LAMONI         CLEAR     18  12  77 W9        30.13S WCI   7
RED OAK *      CLEAR     18  10  73 SW5       30.16R WCI  11
SHENANDOAH *   CLEAR     16  12  86 CALM      30.18R
$$

IAZ047>049-059>061-072>074-084-251500-
   CENTRAL IOWA

CITY           SKY/WX    TMP DP  RH WIND       PRES   REMARKS
AMES             N/A     15  11  83 W7        30.11R WCI   5
ANKENY *       CLEAR     18  12  79 W5        30.12S WCI  11
CHARITON *     CLEAR     18  14  86 W8        30.12S WCI   7
DES MOINES     CLEAR     19  11  70 NW5       30.13R WCI  12
GRINNELL*      CLEAR     16  12  86 W6        30.10S WCI   7
KNOXVILLE *    CLEAR     18  12  79 W6        30.11S WCI   9
MARSHALLTOWN   CLEAR     12   9  87 W5        30.09S WCI   4
PELLA *        CLEAR     19  14  79 W7        30.13R WCI  10
PERRY *          N/A     16  12  86 W7        30.12S WCI   6
$$

IAZ004>006-015-016-023>025-035-036-251500-
   NORTH CENTRAL IOWA

CITY           SKY/WX    TMP DP  RH WIND       PRES   REMARKS
ALGONA *       CLEAR     12   9  85 SW8       30.07R WCI   1
CLARION *      CLEAR     12   9  85 W5        30.08R WCI   4
ESTHERVILLE    MOCLDY    11   5  77 SW7       30.04S WCI   0
FORT DODGE *   CLEAR     14   9  79 W5        30.10R WCI   6
MASON CITY     CLEAR      9   5  84 W6        30.06S WCI  -1
FOREST CITY *  CLEAR     12   9  85 CALM      30.05R
IOWA FALLS *     N/A     12   9  85 W6        30.08S WCI   3
$$

IAZ007>011-017>019-026>030-037>042-050>054-066-251500-
   NORTHEAST IOWA

CITY           SKY/WX    TMP DP  RH WIND       PRES   REMARKS
CEDAR RAPIDS   CLEAR     13  10  88 W10       30.09R WCI   0
CHARLES CITY * CLEAR      7   3  85 CALM      30.06R
CLINTON *      CLEAR     14   9  79 W12       30.11R WCI   0
DECORAH *      PTCLDY    10   7  85 VRB5      30.03R WCI   2
DUBUQUE        CLEAR     13   9  84 W7        30.04R WCI   3
MONTICELLO *   CLEAR     14   9  79 W9        30.08R WCI   2
OELWEIN *      CLEAR     10   7  85 W7        30.06S WCI   0
WATERLOO       CLEAR     11   8  88 W6        30.09R WCI   1
$$

IAZ064-065-067-068-078-251500-
   EAST CENTRAL IOWA

CITY           SKY/WX    TMP DP  RH WIND       PRES   REMARKS
DAVENPORT      CLOUDY    16  10  77 W14       30.10R WCI   2
MT. PLEASANT * MOCLDY    21  16  79 W9        30.13R WCI  11
MUSCATINE *    PTCLDY    19  12  73 NW13      30.14R WCI   7
QUAD CITIES    MOCLDY    17  10  74 W13       30.11R WCI   4
$$

IAZ062-063-075>077-085>089-095>099-251500-
   SOUTHEAST IOWA

CITY           SKY/WX    TMP DP  RH WIND       PRES   REMARKS
BURLINGTON     CLOUDY    23  18  81 NW6       30.12R WCI  16
FAIRFIELD *    CLEAR     19  14  79 W10       30.12R WCI   8
FORT MADISON * CLOUDY    25  21  86 NW9       30.13R WCI  15
KEOKUK *       CLOUDY    25  19  80 NW8       30.13R WCI  16
OSKALOOSA *      N/A     19  14  79 NW8       30.12R WCI   9
CENTERVILLE *  CLEAR     19  18  93 W7        30.14R WCI  10
OTTUMWA        CLEAR     19  13  77 NW8       30.13R WCI   9
WASHINGTON *   CLOUDY    21  19  93 NW10G17   30.12R WCI  10
$$

ABBREVIATIONS USED IN REMARKS
   TC - TEMPERATURES IN CELSIUS
  WCI - WIND CHILL INDEX
   HX - HEAT INDEX
  VSB - VISIBILITY
$$



USA.gov is the U.S. government's official web portal to all federal, state and local government web resources and services.